Location: Diebersbach
(48.5163°N, 8.0558°E)
Time: 14:23:46
(UTC+00:00)

Meteor 2-13 Rocket - Pass Details

Date: 20 June 2021
Orbit: 935 x 958 km, 82.5° (Epoch: 29 July)

Event Time Altitude Azimuth Distance (km) Brightness Sun altitude
Exits shadow 00:24:00 27° 191° (S) 1,763 5.2 -17.0°
Maximum altitude 00:27:37 86° 278° (W) 968 4.4 -16.9°
Drops below altitude 10° 00:33:50 10° 9° (N) 2,702 8.1 -16.6°
Sets 00:36:21 0° 10° (N) 3,651 9.3 -16.5°
